Terminal Aerodrome Forecast
Issued by NWS North Platte, NE

Home | Current Version | Previous Version | Text Only | Print | Product List | Glossary Off
Versions: 1 2 3 4 5 6 7 8 9 10 11 12

000
FTUS43 KLBF 011727
TAFVTN
TAF
KVTN 011727Z 0118/0218 30007KT P6SM BKN050
     FM020000 27004KT P6SM BKN100
     FM021200 28004KT P6SM SCT250=

USA.gov is the U.S. government's official web portal to all federal, state and local government web resources and services.